Flag for China Weather past 2 weeks in Hohhot, Inner Mongolia, China

Now
88 °F

Passing clouds.


Feels Like: 88 °F
Forecast: 67 / 81 °F
Wind: 8 mph from Southwest

Location: Hohhot Airport

Current Time: Jul 28, 2014 at 2:49:35 PM

Latest Report: Jul 28, 2014 at 2:00 PM


Visibility: N/A

Pressure: 29.74 "Hg

Humidity: 43%

Dew point: 63 °F

Location of HohhotLocation

Historic Weather in Hohhot — Graph

°F

Hohhot temperature yesterday

Maximum temperature yesterday: 88 °F (at 3:00 PM)
Minimum temperature yesterday: 61 °F (at 6:00 AM)
Average temperature yesterday: 76 °F

Past Weeks' High & Low Weather Summary

 TemperatureHumidityPressure
High93 °F (Jul 18, 4:00 PM)100% (Jul 22, 6:00 AM)30.01 "Hg (Jul 22, 6:00 AM)
Low55 °F (Jul 14, 5:00 AM)28% (Jul 13, 3:00 PM)29.68 "Hg (Jul 16, 5:00 PM)
Average73 °F64%29.86 "Hg
* Reported Jul 13 1:00 PM — Jul 28 1:00 PM, Hohhot, Weather by CustomWeather, © 2014

Note: Actual official high and low records may vary slightly from our data, if they occured in-between our weather recording intervals... More about our weather records

Advertising

Hohhot weather history for previous 24 hours

 ConditionsComfort  
Time TempWeatherWind HumidityBarometerVisibility
1:00 PM
Jul 28
86 °FPassing clouds.8 mph46%29.77 "HgN/A
12:00 PM84 °FPassing clouds.3 mph48%29.77 "HgN/A
11:00 AM82 °FPassing clouds.3 mph45%29.80 "HgN/A
10:00 AM79 °FPassing clouds.3 mph51%29.83 "HgN/A
9:00 AM79 °FSunny.3 mph48%29.83 "Hg10 mi
8:00 AM73 °FSunny.1 mph65%29.83 "Hg10 mi
7:00 AM68 °FSunny.3 mph73%29.83 "Hg10 mi
6:00 AM64 °FSunny.3 mph83%29.83 "Hg10 mi
5:00 AM64 °FClear.6 mph78%29.83 "Hg10 mi
4:00 AM64 °FClear.3 mph78%29.83 "Hg10 mi
3:00 AM66 °FClear.3 mph78%29.83 "Hg10 mi
2:00 AM68 °FClear.3 mph73%29.83 "Hg10 mi
1:00 AM68 °FClear.1 mph73%29.83 "Hg10 mi
12:00 AM72 °FClear.3 mph65%29.83 "Hg10 mi
11:00 PM
Jul 27
72 °FPassing clouds.3 mph65%29.83 "HgN/A
10:00 PM73 °FPassing clouds.8 mph57%29.83 "HgN/A
9:00 PM79 °FPassing clouds.3 mph48%29.83 "HgN/A
8:00 PM81 °FPassing clouds.1 mph54%29.83 "HgN/A
7:00 PM84 °FPassing clouds.3 mph51%29.80 "HgN/A
6:00 PM86 °FPassing clouds.6 mph43%29.83 "HgN/A
5:00 PM88 °FPassing clouds.8 mph40%29.83 "HgN/A
4:00 PM88 °FPassing clouds.8 mph43%29.83 "HgN/A
3:00 PM88 °FPassing clouds.10 mph40%29.86 "HgN/A
2:00 PM86 °FPassing clouds.8 mph40%29.89 "HgN/A
Weather by CustomWeather, © 2014

See weather overviewHow to use our weather pages